[[{"header":{"parameterUnit":"m.s-1","parameterCategory":1,"la1":30.2991,"la2":30.254,"lo1":-89.0895,"lo2":-89.0444,"dy":0.0017,"dx":0.0017,"nx":28,"ny":28,"refTime":"2024-12-24T03:00:00:Z","depth":0,"parameterNumber":2,"parameterNumberName":"U-component_of_WINDS"},"data":[0,0,0,0,0,0,0,0,0,0,0,0,0,0,0,0,0,0,0,0,0,0,0,0,0,0,0,0,0,0,0,0,0,0,0,0,0,0,0,0,0,0,0,0,0,0,0,0,0,0,0,0,0,0,0,0,0,0,-4.3463,-4.3463,0,-4.3488,-4.3488,-4.3488,-4.3328,-4.3324,-4.3319,-4.3315,-4.3341,-4.3345,-4.335,0,0,0,0,0,0,0,0,0,0,0,0,0,-4.3277,-4.3281,-4.3463,-4.3463,-4.3464,-4.3488,-4.3488,-4.3488,-4.3329,-4.3323,-4.3318,-4.3313,-4.3339,-4.3345,-4.3351,0,0,0,0,0,0,0,0,0,0,0,0,0,-4.3336,-4.3283,-4.3463,-4.3387,-4.338,-4.3488,-4.3488,-4.3488,-4.333,-4.3323,-4.3317,-4.331,-4.3337,-4.3344,-4.3352,-4.3533,0,0,-4.3374,-4.3377,0,0,0,0,0,0,0,0,-4.3333,-4.3343,-4.3398,-4.3392,-4.3385,-4.3398,-4.3432,-4.3503,-4.3332,-4.3349,-4.3315,-4.3307,-4.3365,-4.337,-4.3389,-4.3534,-4.3535,-4.3375,-4.3379,-4.3382,-4.3384,0,0,0,0,0,0,0,-4.3329,-4.3341,-4.3473,-4.3399,-4.3391,-4.3351,-4.3352,-4.3445,-4.3395,-4.3347,-4.3336,-4.3341,-4.336,-4.3383,-4.3389,-4.3536,-4.3374,-4.3381,-4.3386,-4.3388,-4.3829,-4.3836,0,0,0,0,0,0,-4.3335,-4.3338,-4.3472,-4.3473,-4.3342,-4.336,-4.3361,-4.3401,-4.3394,-4.3386,-4.3347,-4.3333,-4.3373,-4.338,-4.3389,-4.36,-4.3382,-4.3389,-4.3393,-4.3822,-4.383,-4.3838,0,0,0,0,0,0,-4.3331,-4.3348,-4.3471,-4.3403,-4.3415,-4.3371,-4.3416,-4.3405,-4.3427,-4.3393,-4.3383,-4.3378,-4.3368,-4.3379,-4.3498,-4.3598,-4.3392,-4.3399,-4.3813,-4.3824,-4.3834,-4.4024,0,0,0,0,0,0,-4.3327,-4.3348,-4.3417,-4.3406,-4.342,-4.358,-4.3423,-4.341,-4.344,-4.3423,-4.342,-4.3414,-4.3364,-4.3488,-4.3505,-4.3605,-4.3405,-4.3804,-4.3818,-4.3831,-4.4008,-4.404,-4.4067,0,0,0,0,0,-4.3321,-4.3469,-4.3421,-4.3438,-4.3505,-4.3586,-4.3594,-4.3534,-4.3449,-4.3517,-4.3495,-4.3414,-4.3585,-4.3501,-4.352,-4.3623,-4.3797,-4.3814,-4.383,-4.3995,-4.4034,-4.4066,0,0,0,0,0,0,-4.3494,-4.3467,-4.3413,-4.3562,-4.3578,-4.3559,-4.3643,-4.3577,-4.3617,-4.3599,-4.3523,-4.3524,-4.3656,-4.3651,-4.3559,-4.3797,-4.3676,-4.3697,-4.3796,-4.3832,-4.386,-4.3858,-4.3411,0,0,0,0,0,-4.355,-4.3618,-4.359,-4.3725,-4.3736,-4.3689,-4.3722,-4.3674,-4.3687,-4.3693,-4.368,-4.3696,-4.3753,-4.3792,-4.3843,-4.4007,-4.4004,-4.4087,-4.4116,-4.414,-4.4159,-4.4244,-4.4281,-4.3892,-4.3892,-4.3892,0,0,-4.3665,-4.3659,-4.3707,-4.376,-4.3766,-4.3839,-4.3695,-4.3778,-4.3831,-4.3706,-4.3817,-4.3808,-4.3821,-4.3963,-4.4025,-4.3963,-4.4266,-4.4161,-4.4181,-4.4186,-4.4265,-4.4302,-4.4335,-4.3903,-4.3901,-4.3899,0,0,-4.3912,-4.3915,-4.4027,-4.4036,-4.4047,-4.4015,-4.4042,-4.4034,-4.4023,-4.4133,-4.404,-4.4102,-4.4202,-4.4215,-4.4234,-4.4486,-4.4412,-4.4505,-4.4657,-4.4741,-4.4772,-4.4798,-4.4887,-4.492,-4.4523,-4.4524,-4.4524,0,-4.4054,-4.416,-4.4093,-4.4182,-4.4207,-4.4097,-4.4209,-4.4221,-4.4249,-4.4269,-4.42,-4.4323,-4.4323,-4.4466,-4.4528,-4.4548,-4.4576,-4.4504,-4.4773,-4.4799,-4.4823,-4.4906,-4.494,-4.4535,-4.4534,-4.4533,-4.4532,0,-4.4334,-4.4408,-4.4497,-4.4526,-4.4562,-4.4663,-4.461,-4.4654,-4.4604,-4.4579,-4.4692,-4.4689,-4.4737,-4.4767,-4.4719,-4.4904,-4.4865,-4.4786,-4.4662,-4.4872,-4.4949,-4.4981,-4.4551,-4.4547,-4.4544,-4.4541,0,0,-4.4691,-4.4681,-4.4714,-4.4726,-4.473,-4.4786,-4.4881,-4.4928,-4.4967,-4.499,-4.5067,-4.5154,-4.508,-4.5103,-4.5054,-4.5129,-4.5327,-4.5039,-4.5038,-4.5092,-4.5529,-4.5588,-4.5626,-4.5278,-4.5284,-4.5288,-4.5527,0,-4.4931,-4.5093,-4.5035,-4.52,-4.5267,-4.5163,-4.5246,-4.5258,-4.5237,-4.5291,-4.5267,-4.533,-4.5229,-4.5241,-4.531,-4.5288,-4.5413,-4.527,-4.5348,-4.5352,-4.5348,-4.5666,-4.5729,-4.5955,-4.5557,-4.5562,-4.5566,0,-4.5233,-4.5268,-4.544,-4.5431,-4.5458,-4.5533,-4.557,-4.5624,-4.5634,-4.5614,-4.5639,-4.5574,-4.5666,-4.5544,-4.5669,-4.5573,-4.5602,-4.5596,-4.5603,-4.5607,-4.5471,-4.5678,-4.6025,-4.6059,-4.5613,-4.5609,-4.5606,0,-4.5475,-4.5565,-4.5679,-4.5692,-4.5685,-4.574,-4.574,-4.5744,-4.5775,-4.5808,-4.5827,-4.5871,-4.5895,-4.593,-4.5878,-4.5794,-4.6011,-4.5884,-4.5996,-4.5998,-4.6046,-4.6043,-4.6401,-4.6067,-4.6066,-4.6066,-4.6065,0,-4.5749,-4.5858,-4.5787,-4.5857,-4.5976,-4.5908,-4.6028,-4.6016,-4.602,-4.6086,-4.5999,-4.6062,-4.5991,-4.6048,-4.6009,-4.6118,-4.613,-4.6115,-4.6103,-4.6123,-4.6124,-4.6139,-4.6122,-4.6074,-4.6072,-4.6071,-4.6069,0,-4.6039,-4.5996,-4.6113,-4.6097,-4.6095,-4.6184,-4.617,-4.6234,-4.6206,-4.6291,-4.6307,-4.6264,-4.6327,-4.6279,-4.6341,-4.6314,-4.6458,-4.6425,-4.6455,-4.6445,-4.6559,-4.6548,-4.6938,-4.6985,-4.6622,-4.6626,-4.6629,0,-4.6216,-4.6298,-4.629,-4.6328,-4.6333,-4.6395,-4.6426,-4.6363,-4.6399,-4.6417,-4.6478,-4.6533,-4.6573,-4.6677,-4.6652,-4.6698,-4.6665,-4.6798,-4.6671,-4.6687,-4.6665,-4.666,-4.6668,-4.6824,-4.6828,-4.6831,-4.6834,0,-4.6535,-4.6509,-4.6558,-4.6599,-4.6639,-4.6668,-4.6691,-4.6726,-4.6662,-4.6707,-4.6769,-4.68,-4.6862,-4.6918,-4.6955,-4.6954,-4.6884,-4.6875,-4.6903,-4.6923,-4.6936,-4.6929,-4.6523,-4.6866,-4.6863,-4.686,-4.6859,-4.6857,-4.6773,-4.684,-4.6845,-4.6901,-4.6911,-4.6934,-4.6993,-4.6973,-4.7024,-4.707,-4.7029,-4.7104,-4.7111,-4.7154,-4.7162,-4.7219,-4.7164,-4.7205,-4.7215,-4.7226,-4.7242,-4.6928,-4.7226,-4.7225,-4.7224,-4.7223,-4.7223,0,-4.7086,-4.7084,-4.7137,-4.717,-4.7215,-4.7145,-4.7166,-4.7208,-4.7274,-4.7287,-4.7329,-4.74,-4.7453,-4.7432,-4.7478,-4.7528,-4.7497,-4.7542,-4.7537,-4.7538,-4.7289,-4.726,-4.7566,-4.7566,-4.7566,-4.7566,-4.7566,-4.7566,-4.7254,-4.7363,-4.7339,-4.7452,-4.7448,-4.7521,-4.7538,-4.7559,-4.7569,-4.7652,-4.7695,-4.7681,-4.768,-4.7726,-4.7771,-4.7763,-4.7784,-4.7841,-4.7822,-4.759,-4.7556,-4.7523,-4.7495,-4.7846,-4.7847,-4.8065,-4.8067,-4.8069]},{"header":{"parameterUnit":"m.s-1","parameterCategory":1,"la1":30.2991,"la2":30.254,"lo1":-89.0895,"lo2":-89.0444,"dy":0.0017,"dx":0.0017,"nx":28,"ny":28,"refTime":"2024-12-24T03:00:00:Z","depth":0,"parameterNumber":3,"parameterNumberName":"V-component_of_WINDS"},"data":[0,0,0,0,0,0,0,0,0,0,0,0,0,0,0,0,0,0,0,0,0,0,0,0,0,0,0,0,0,0,0,0,0,0,0,0,0,0,0,0,0,0,0,0,0,0,0,0,0,0,0,0,0,0,0,0,0,0,-0.5452,-0.5452,0,-0.5476,-0.5476,-0.5476,-0.546,-0.546,-0.5459,-0.5458,-0.5485,-0.5487,-0.5488,0,0,0,0,0,0,0,0,0,0,0,0,0,-0.5393,-0.5395,-0.5452,-0.5452,-0.5452,-0.5476,-0.5476,-0.5476,-0.5461,-0.546,-0.5459,-0.5458,-0.5485,-0.5487,-0.5488,0,0,0,0,0,0,0,0,0,0,0,0,0,-0.5418,-0.5395,-0.5452,-0.5447,-0.5447,-0.5476,-0.5476,-0.5476,-0.5461,-0.546,-0.5459,-0.5458,-0.5484,-0.5486,-0.5489,-0.5523,0,0,-0.5495,-0.5496,0,0,0,0,0,0,0,0,-0.5417,-0.542,-0.5448,-0.5448,-0.5447,-0.5464,-0.5465,-0.5492,-0.5461,-0.5456,-0.5458,-0.5457,-0.5479,-0.5482,-0.5489,-0.5525,-0.5526,-0.5495,-0.5496,-0.5497,-0.5498,0,0,0,0,0,0,0,-0.5415,-0.5419,-0.5461,-0.5448,-0.5448,-0.5444,-0.5447,-0.547,-0.5474,-0.5456,-0.5455,-0.5458,-0.5479,-0.5487,-0.5489,-0.5526,-0.5495,-0.5497,-0.5498,-0.5499,-0.559,-0.5591,0,0,0,0,0,0,-0.5414,-0.5418,-0.5461,-0.5462,-0.5429,-0.5446,-0.5449,-0.546,-0.5473,-0.5474,-0.5459,-0.5457,-0.5484,-0.5487,-0.549,-0.5531,-0.5497,-0.5499,-0.5501,-0.5589,-0.5591,-0.5592,0,0,0,0,0,0,-0.5412,-0.5418,-0.546,-0.544,-0.5445,-0.5448,-0.5461,-0.5461,-0.5468,-0.5475,-0.5476,-0.5466,-0.5483,-0.5487,-0.5515,-0.5532,-0.55,-0.5502,-0.5588,-0.559,-0.5591,-0.5614,0,0,0,0,0,0,-0.5411,-0.5417,-0.5431,-0.544,-0.5446,-0.5484,-0.5462,-0.5462,-0.5472,-0.547,-0.5482,-0.5483,-0.5482,-0.5512,-0.5517,-0.5534,-0.5504,-0.5586,-0.5589,-0.5591,-0.5611,-0.5616,-0.562,0,0,0,0,0,-0.5409,-0.5437,-0.5431,-0.5437,-0.5462,-0.5485,-0.5488,-0.5486,-0.5473,-0.5487,-0.549,-0.5483,-0.5529,-0.5515,-0.552,-0.5539,-0.5585,-0.5588,-0.559,-0.561,-0.5615,-0.562,0,0,0,0,0,0,-0.5431,-0.5438,-0.5432,-0.5464,-0.5474,-0.5482,-0.5499,-0.5492,-0.5506,-0.5504,-0.5501,-0.5504,-0.5533,-0.5538,-0.5522,-0.5572,-0.5555,-0.5559,-0.5568,-0.5573,-0.5577,-0.5576,-0.5506,0,0,0,0,0,-0.5439,-0.5456,-0.5462,-0.5489,-0.5494,-0.5496,-0.5505,-0.5502,-0.5513,-0.5517,-0.5523,-0.5534,-0.5551,-0.5562,-0.5578,-0.5612,-0.5614,-0.5627,-0.5631,-0.5634,-0.5638,-0.5655,-0.5661,-0.56,-0.56,-0.56,0,0,-0.5458,-0.5463,-0.5475,-0.5494,-0.5501,-0.5519,-0.5499,-0.5519,-0.5532,-0.5521,-0.5546,-0.5551,-0.5563,-0.5593,-0.5607,-0.5599,-0.5655,-0.5638,-0.564,-0.5642,-0.5658,-0.5664,-0.5669,-0.5602,-0.5602,-0.5602,0,0,-0.5499,-0.5505,-0.5529,-0.5535,-0.5546,-0.5546,-0.5551,-0.556,-0.5562,-0.5588,-0.5579,-0.5594,-0.5623,-0.5632,-0.564,-0.5682,-0.5675,-0.5687,-0.5709,-0.5726,-0.5731,-0.5735,-0.575,-0.5755,-0.569,-0.569,-0.569,0,-0.5521,-0.5547,-0.5542,-0.5561,-0.557,-0.5558,-0.5581,-0.5588,-0.5604,-0.561,-0.56,-0.5635,-0.5642,-0.5674,-0.5684,-0.5691,-0.5697,-0.5686,-0.573,-0.5734,-0.5738,-0.5752,-0.5758,-0.5692,-0.5692,-0.5691,-0.5691,0,-0.5572,-0.559,-0.5607,-0.5621,-0.5631,-0.5653,-0.5651,-0.5662,-0.5657,-0.5659,-0.5684,-0.5692,-0.5708,-0.5715,-0.5712,-0.5746,-0.574,-0.573,-0.5714,-0.5746,-0.5759,-0.5764,-0.5694,-0.5693,-0.5693,-0.5693,0,0,-0.5631,-0.5639,-0.5646,-0.5651,-0.566,-0.5674,-0.5694,-0.5709,-0.5718,-0.5729,-0.5746,-0.5769,-0.5759,-0.5768,-0.5765,-0.578,-0.5812,-0.5768,-0.5768,-0.5776,-0.5849,-0.5857,-0.5863,-0.5807,-0.5808,-0.5808,-0.5848,0,-0.5673,-0.5708,-0.5703,-0.5737,-0.5752,-0.574,-0.5757,-0.5765,-0.5766,-0.578,-0.5781,-0.5798,-0.5784,-0.5789,-0.5802,-0.5805,-0.5827,-0.5802,-0.5823,-0.5824,-0.5821,-0.587,-0.5879,-0.5916,-0.5853,-0.5854,-0.5855,0,-0.5728,-0.5738,-0.5773,-0.5778,-0.5784,-0.58,-0.5812,-0.5825,-0.5833,-0.5833,-0.5842,-0.5835,-0.5856,-0.5837,-0.5865,-0.5848,-0.5856,-0.5858,-0.5859,-0.5862,-0.5842,-0.5874,-0.5928,-0.5934,-0.5863,-0.5862,-0.5861,0,-0.5767,-0.579,-0.5813,-0.5818,-0.5824,-0.5836,-0.5839,-0.5845,-0.5854,-0.5864,-0.587,-0.5883,-0.5891,-0.5901,-0.5898,-0.5885,-0.5926,-0.5908,-0.5927,-0.5927,-0.5937,-0.5937,-0.5993,-0.5941,-0.5941,-0.5941,-0.5941,0,-0.5815,-0.5837,-0.5831,-0.5845,-0.5869,-0.5862,-0.5886,-0.5888,-0.5893,-0.5907,-0.5897,-0.5911,-0.5907,-0.592,-0.5919,-0.5941,-0.5945,-0.5945,-0.5945,-0.5947,-0.5947,-0.5953,-0.595,-0.5943,-0.5942,-0.5942,-0.5942,0,-0.5864,-0.5861,-0.5885,-0.5888,-0.5889,-0.5906,-0.5909,-0.5922,-0.5921,-0.594,-0.5944,-0.5943,-0.5958,-0.5956,-0.5974,-0.5972,-0.6,-0.5996,-0.5998,-0.5997,-0.6016,-0.6014,-0.6079,-0.6087,-0.6029,-0.603,-0.603,0,-0.5896,-0.5912,-0.5915,-0.5924,-0.5927,-0.5941,-0.5949,-0.5943,-0.5951,-0.596,-0.5972,-0.5986,-0.5997,-0.6022,-0.6023,-0.6036,-0.6033,-0.6054,-0.6035,-0.6036,-0.6033,-0.6033,-0.6034,-0.6059,-0.606,-0.606,-0.6061,0,-0.5952,-0.5948,-0.596,-0.597,-0.5979,-0.5987,-0.5995,-0.6002,-0.5996,-0.6006,-0.6021,-0.6029,-0.6046,-0.606,-0.6071,-0.6075,-0.6067,-0.6066,-0.6071,-0.6074,-0.6074,-0.6074,-0.6009,-0.6065,-0.6065,-0.6064,-0.6064,-0.6064,-0.5993,-0.6006,-0.601,-0.6023,-0.6027,-0.6033,-0.6045,-0.6045,-0.6057,-0.6069,-0.6064,-0.6081,-0.6086,-0.6101,-0.6105,-0.6118,-0.6111,-0.6118,-0.612,-0.6122,-0.6124,-0.6071,-0.612,-0.612,-0.612,-0.612,-0.612,0,-0.6049,-0.605,-0.6061,-0.607,-0.608,-0.6069,-0.6076,-0.6085,-0.6099,-0.6105,-0.6115,-0.6131,-0.6144,-0.6145,-0.6157,-0.6167,-0.6164,-0.6171,-0.617,-0.6171,-0.6131,-0.6125,-0.6173,-0.6173,-0.6173,-0.6173,-0.6173,-0.6173,-0.6079,-0.61,-0.6097,-0.612,-0.6121,-0.6136,-0.6141,-0.6146,-0.615,-0.6168,-0.6178,-0.6178,-0.6181,-0.6193,-0.6204,-0.6204,-0.6209,-0.6218,-0.6217,-0.6179,-0.6174,-0.6169,-0.6164,-0.6219,-0.6219,-0.6256,-0.6256,-0.6256]}]]